Tracking 19149 objects as of 21-Apr-2018
HD Live streaming from Space Station
objects crossing your sky now

FENGYUN 1C DEB

Track FENGYUN 1C DEB now!
10-day predictions


NORAD ID: 30666
Int'l Code: 1999-025APY
Perigee: 857.2 km
Apogee: 942.7 km
Inclination: 98.9 °
Period: 102.8 minutes
Semi major axis: 7270 km
RCS: 0.0336 m2 (small)
Launch date: May 10, 1999
Source: People's Republic of China (PRC)
Launch site: Taiyaun Space Center, China (TSC)

Note: This is SATELLITE DEBRIS
aabbcc
Your satellite tracking list
Your tracking list is empty




NASA's NSSDC Master Catalog

Two Line Element Set (TLE):
1 30666U 99025APY 18110.91242105 +.00000385 +00000-0 +28590-3 0  9994
2 30666 098.9408 149.6393 0058784 353.5404 130.9377 14.00283239570062
Source of the keplerian elements: AFSPC